• In Uzbekistan
  • List of Countries
  • For 7 days
  • Water Temperature
  • Satellite Maps
  • Weather Map
  • Weather Widgets
  • user-avatar
    Login

    Hourly Weather Marcali

    Today, 20 September, Wednesday

    Time Temperature Precipitation Wind Pressure Humidity
    00:00 +11°C° 0.4 mm 4 mps 747 mmHg 94%
    01:00 +10°C° 0 mm 5 mps 747 mmHg 93%
    02:00 +11°C° 0.1 mm 4 mps 747 mmHg 92%
    03:00 +11°C° 0.1 mm 4 mps 747 mmHg 92%
    04:00 +11°C° 0.1 mm 4 mps 747 mmHg 92%
    05:00 +10°C° 0.1 mm 5 mps 747 mmHg 91%
    06:00 +10°C° 0.1 mm 5 mps 747 mmHg 91%
    07:00 +10°C° 0.1 mm 5 mps 747 mmHg 90%
    08:00 +10°C° 0.1 mm 5 mps 748 mmHg 88%
    09:00 +10°C° 0.1 mm 6 mps 748 mmHg 86%
    10:00 +11°C° 0.1 mm 6 mps 748 mmHg 84%
    11:00 +11°C° 0 mm 6 mps 748 mmHg 82%
    12:00 +12°C° 0 mm 7 mps 749 mmHg 79%
    13:00 +12°C° 0 mm 7 mps 749 mmHg 77%
    14:00 +12°C° 0 mm 7 mps 749 mmHg 75%
    15:00 +12°C° 0 mm 7 mps 749 mmHg 74%
    16:00 +12°C° 0 mm 7 mps 749 mmHg 73%
    17:00 +13°C° 0 mm 6 mps 749 mmHg 74%
    18:00 +11°C° 0 mm 6 mps 749 mmHg 75%
    19:00 +11°C° 0 mm 6 mps 749 mmHg 76%
    20:00 +10°C° 0 mm 6 mps 749 mmHg 77%
    21:00 +10°C° 0 mm 6 mps 750 mmHg 77%
    22:00 +10°C° 0 mm 6 mps 750 mmHg 78%
    23:00 +10°C° 0 mm 6 mps 750 mmHg 77%

    Tomorrow, 21 September, Thursday

    Time Temperature Precipitation Wind Pressure Humidity
    00:00 +10°C° 0 mm 6 mps 750 mmHg 77%
    01:00 +10°C° 0 mm 6 mps 750 mmHg 77%
    02:00 +10°C° 0 mm 6 mps 750 mmHg 76%
    03:00 +10°C° 0 mm 6 mps 750 mmHg 76%
    04:00 +10°C° 0 mm 6 mps 750 mmHg 76%
    05:00 +10°C° 0 mm 6 mps 750 mmHg 75%
    06:00 +10°C° 0 mm 7 mps 750 mmHg 74%
    07:00 +11°C° 0 mm 7 mps 751 mmHg 74%
    08:00 +12°C° 0 mm 7 mps 751 mmHg 68%
    09:00 +15°C° 0 mm 8 mps 751 mmHg 63%
    10:00 +16°C° 0 mm 8 mps 751 mmHg 57%
    11:00 +17°C° 0 mm 8 mps 751 mmHg 55%
    12:00 +17°C° 0 mm 8 mps 751 mmHg 53%
    13:00 +18°C° 0 mm 8 mps 751 mmHg 50%
    14:00 +18°C° 0 mm 7 mps 751 mmHg 51%
    15:00 +19°C° 0 mm 6 mps 751 mmHg 53%
    16:00 +17°C° 0 mm 5 mps 751 mmHg 54%
    17:00 +16°C° 0 mm 5 mps 751 mmHg 59%
    18:00 +14°C° 0 mm 4 mps 751 mmHg 65%
    19:00 +13°C° 0 mm 3 mps 751 mmHg 71%
    20:00 +13°C° 0 mm 3 mps 752 mmHg 72%
    21:00 +12°C° 0 mm 3 mps 752 mmHg 74%
    22:00 +12°C° 0 mm 3 mps 752 mmHg 75%
    23:00 +11°C° 0 mm 3 mps 752 mmHg 77%

    Day after tomorrow, 22 September, Friday

    Time Temperature Precipitation Wind Pressure Humidity
    00:00 +11°C° 0 mm 3 mps 752 mmHg 78%
    01:00 +12°C° 0 mm 2 mps 752 mmHg 80%
    02:00 +10°C° 0 mm 2 mps 752 mmHg 81%
    03:00 +10°C° 0 mm 2 mps 753 mmHg 82%
    04:00 +10°C° 0 mm 2 mps 753 mmHg 83%
    05:00 +10°C° 0 mm 2 mps 753 mmHg 81%
    06:00 +11°C° 0 mm 3 mps 753 mmHg 79%
    07:00 +11°C° 0 mm 3 mps 753 mmHg 77%
    08:00 +13°C° 0 mm 3 mps 753 mmHg 70%
    09:00 +16°C° 0 mm 3 mps 753 mmHg 63%
    10:00 +18°C° 0 mm 3 mps 754 mmHg 55%
    11:00 +19°C° 0 mm 3 mps 754 mmHg 52%
    12:00 +20°C° 0 mm 3 mps 753 mmHg 49%
    13:00 +21°C° 0 mm 3 mps 753 mmHg 46%
    14:00 +21°C° 0 mm 2 mps 753 mmHg 47%
    15:00 +21°C° 0 mm 2 mps 753 mmHg 48%
    16:00 +21°C° 0 mm 2 mps 753 mmHg 49%
    17:00 +20°C° 0 mm 1 mps 754 mmHg 55%
    18:00 +18°C° 0 mm 1 mps 754 mmHg 60%
    19:00 +15°C° 0 mm 1 mps 754 mmHg 66%
    20:00 +15°C° 0 mm 1 mps 754 mmHg 68%
    21:00 +13°C° 0 mm 0 mps 755 mmHg 69%
    22:00 +13°C° 0 mm 0 mps 755 mmHg 71%
    23:00 +13°C° 0 mm 0 mps 755 mmHg 72%

    23 September, Saturday

    Time Temperature Precipitation Wind Pressure Humidity
    00:00 +13°C° 0 mm 1 mps 755 mmHg 74%
    01:00 +13°C° 0 mm 1 mps 755 mmHg 75%
    02:00 +13°C° 0 mm 1 mps 755 mmHg 77%
    03:00 +12°C° 0 mm 1 mps 755 mmHg 79%
    04:00 +12°C° 0 mm 1 mps 755 mmHg 81%
    05:00 +13°C° 0 mm 1 mps 755 mmHg 79%
    06:00 +13°C° 0 mm 1 mps 755 mmHg 77%
    07:00 +14°C° 0 mm 1 mps 756 mmHg 75%
    08:00 +16°C° 0 mm 1 mps 756 mmHg 68%
    09:00 +19°C° 0 mm 1 mps 756 mmHg 61%
    10:00 +20°C° 0 mm 2 mps 756 mmHg 54%
    11:00 +21°C° 0 mm 2 mps 755 mmHg 51%
    12:00 +23°C° 0 mm 2 mps 755 mmHg 48%
    13:00 +24°C° 0 mm 2 mps 755 mmHg 45%
    14:00 +24°C° 0 mm 2 mps 755 mmHg 47%
    15:00 +23°C° 0 mm 2 mps 754 mmHg 48%
    16:00 +23°C° 0 mm 2 mps 754 mmHg 50%
    17:00 +20°C° 0 mm 2 mps 754 mmHg 56%
    18:00 +19°C° 0 mm 2 mps 755 mmHg 62%
    19:00 +18°C° 0 mm 1 mps 755 mmHg 68%
    20:00 +16°C° 0 mm 1 mps 755 mmHg 71%
    21:00 +16°C° 0 mm 1 mps 755 mmHg 73%
    22:00 +15°C° 0 mm 1 mps 755 mmHg 75%
    23:00 +15°C° 0 mm 1 mps 755 mmHg 77%

    24 September, Sunday

    Time Temperature Precipitation Wind Pressure Humidity
    00:00 +14°C° 0 mm 1 mps 755 mmHg 78%
    01:00 +14°C° 0 mm 1 mps 755 mmHg 80%
    02:00 +14°C° 0 mm 1 mps 755 mmHg 81%
    03:00 +13°C° 0 mm 1 mps 755 mmHg 82%
    04:00 +13°C° 0 mm 2 mps 755 mmHg 84%
    05:00 +13°C° 0 mm 2 mps 755 mmHg 82%
    06:00 +14°C° 0 mm 2 mps 755 mmHg 80%
    07:00 +14°C° 0 mm 2 mps 755 mmHg 78%
    08:00 +16°C° 0 mm 3 mps 755 mmHg 69%
    09:00 +18°C° 0 mm 3 mps 755 mmHg 61%
    10:00 +19°C° 0 mm 4 mps 755 mmHg 53%
    11:00 +20°C° 0 mm 4 mps 755 mmHg 50%
    12:00 +21°C° 0 mm 4 mps 754 mmHg 48%
    13:00 +22°C° 0 mm 4 mps 754 mmHg 45%
    14:00 +22°C° 0 mm 4 mps 754 mmHg 47%
    15:00 +22°C° 0 mm 4 mps 754 mmHg 48%
    16:00 +21°C° 0 mm 4 mps 754 mmHg 49%
    17:00 +19°C° 0 mm 4 mps 754 mmHg 56%
    18:00 +18°C° 0 mm 3 mps 755 mmHg 62%
    19:00 +16°C° 0 mm 2 mps 755 mmHg 68%
    20:00 +15°C° 0 mm 2 mps 755 mmHg 71%
    21:00 +14°C° 0 mm 2 mps 755 mmHg 74%
    22:00 +14°C° 0 mm 2 mps 755 mmHg 76%
    23:00 +14°C° 0 mm 2 mps 755 mmHg 78%

    25 September, Monday

    Time Temperature Precipitation Wind Pressure Humidity
    00:00 +12°C° 0 mm 3 mps 755 mmHg 80%
    01:00 +12°C° 0 mm 3 mps 755 mmHg 82%
    02:00 +12°C° 0 mm 3 mps 755 mmHg 84%
    03:00 +12°C° 0 mm 3 mps 755 mmHg 85%
    04:00 +11°C° 0 mm 3 mps 755 mmHg 87%
    05:00 +12°C° 0 mm 3 mps 756 mmHg 85%
    06:00 +12°C° 0 mm 3 mps 756 mmHg 84%
    07:00 +13°C° 0 mm 3 mps 756 mmHg 82%
    08:00 +14°C° 0 mm 3 mps 756 mmHg 75%
    09:00 +17°C° 0 mm 3 mps 756 mmHg 68%
    10:00 +19°C° 0 mm 4 mps 756 mmHg 61%
    11:00 +20°C° 0.1 mm 3 mps 755 mmHg 59%
    12:00 +21°C° 0.1 mm 3 mps 755 mmHg 57%
    13:00 +21°C° 0.1 mm 3 mps 755 mmHg 54%
    14:00 +21°C° 0.2 mm 3 mps 754 mmHg 56%
    15:00 +21°C° 0.2 mm 3 mps 754 mmHg 58%
    16:00 +21°C° 0.2 mm 2 mps 754 mmHg 60%
    17:00 +19°C° 0.2 mm 2 mps 754 mmHg 66%
    18:00 +19°C° 0.2 mm 1 mps 754 mmHg 73%
    19:00 +16°C° 0.2 mm 1 mps 754 mmHg 79%
    20:00 +16°C° 0.1 mm 1 mps 755 mmHg 81%
    21:00 +15°C° 0.1 mm 1 mps 755 mmHg 83%
    22:00 +15°C° 0.1 mm 1 mps 755 mmHg 84%
    23:00 +14°C° 0 mm 1 mps 755 mmHg 86%
    Show more